Weather History for KCXP - February, 2013

Change the Weather History Date:

Monday, February 25, 2013

  Actual Average Record
Temperature  
Mean Temperature 36 °F -  
Max Temperature 53 °F 53 °F 66 °F (2014)
Min Temperature 19 °F 24 °F 19 °F (2013)
Degree Days  
Heating Degree Days 29    
Moisture  
Dew Point 9 °F    
Average Humidity 37    
Maximum Humidity 68    
Minimum Humidity 13    
Precipitation  
Precipitation 0.00 in - - ()
Sea Level Pressure  
Sea Level Pressure 30.16 in    
Wind  
Wind Speed 4 mph (WNW)    
Max Wind Speed 20 mph    
Max Gust Speed 31 mph    
Visibility 10 miles    
Events      
Averages and records for this station are not official NWS values.
T = Trace of Precipitation, MM = Missing Value Source: NWS Daily Summary

Daily Weather History Graph

Daily Weather History Graph

Search for Another Location

Airport or City:

Trip Planner

Search our weather history database for the weather conditions in past years. The results will help you decide how hot, cold, wet, or windy it might be!

Date:

Astronomy

Feb. 25, 2013 Rise Set
Actual Time 6:36 AM PST 5:47 PM PST
Civil Twilight 6:09 AM PST 6:14 PM PST
Nautical Twilight 5:38 AM PST 6:45 PM PST
Astronomical Twilight 5:07 AM PST 7:16 PM PST
Moon 6:05 PM PST (2/25) 6:10 AM PST (2/25)
Length of Visible Light 12h 04m
Length of Day
11h 10m
Full, 100% of the Moon is Illuminated
Feb 25
Full
Feb 25
Full
Mar 4
Last Quarter
Mar 11
New
Mar 19
First Quarter

Hourly Weather History & Observations

Time (PST) Temp. Windchill Dew Point Humidity Pressure Visibility Wind Dir Wind Speed Gust Speed Precip Events Conditions
12:15 AM 23.0 °F - 6.8 °F 50% 30.24 in 10.0 mi Calm Calm - N/A   Clear
12:35 AM 23.0 °F - 6.8 °F 50% 30.24 in 10.0 mi Calm Calm - N/A   Clear
12:55 AM 23.0 °F 18.4 °F 6.8 °F 50% 30.24 in 10.0 mi NW 3.5 mph - N/A   Clear
1:15 AM 23.0 °F - 8.6 °F 54% 30.23 in 10.0 mi Calm Calm - N/A   Clear
1:35 AM 19.4 °F - 8.6 °F 63% 30.23 in 10.0 mi Calm Calm - N/A   Clear
1:55 AM 19.4 °F - 8.6 °F 63% 30.23 in 10.0 mi Calm Calm - N/A   Clear
2:15 AM 21.2 °F - 8.6 °F 58% 30.23 in 10.0 mi Calm Calm - N/A   Clear
2:35 AM 21.2 °F - 8.6 °F 58% 30.23 in 10.0 mi Calm Calm - N/A   Clear
2:55 AM 19.4 °F - 8.6 °F 63% 30.22 in 10.0 mi Calm Calm - N/A   Clear
3:15 AM 21.2 °F - 10.4 °F 63% 30.21 in 10.0 mi Calm Calm - N/A   Clear
3:35 AM 21.2 °F - 10.4 °F 63% 30.21 in 9.0 mi Calm Calm - N/A   Clear
3:55 AM 23.0 °F - 10.4 °F 59% 30.21 in 10.0 mi Calm Calm - N/A   Clear
4:15 AM 23.0 °F - 10.4 °F 59% 30.20 in 10.0 mi Calm Calm - N/A   Clear
4:35 AM 21.2 °F - 10.4 °F 63% 30.20 in 10.0 mi Calm Calm - N/A   Clear
4:55 AM 23.0 °F - 10.4 °F 59% 30.20 in 10.0 mi Calm Calm - N/A   Clear
5:15 AM 23.0 °F - 10.4 °F 59% 30.20 in 10.0 mi Calm Calm - N/A   Clear
5:35 AM 23.0 °F - 10.4 °F 59% 30.20 in 10.0 mi Calm Calm - N/A   Clear
5:55 AM 23.0 °F - 10.4 °F 59% 30.20 in 10.0 mi Calm Calm - N/A   Clear
6:15 AM 19.4 °F - 10.4 °F 68% 30.18 in 10.0 mi Calm Calm - N/A   Clear
6:35 AM 23.0 °F - 10.4 °F 59% 30.18 in 10.0 mi Calm Calm - N/A   Clear
6:55 AM 24.8 °F - 10.4 °F 54% 30.18 in 10.0 mi Calm Calm - N/A   Clear
7:15 AM 24.8 °F - 10.4 °F 54% 30.17 in 10.0 mi Calm Calm - N/A   Clear
7:35 AM 26.6 °F 21.2 °F 10.4 °F 51% 30.16 in 10.0 mi WNW 4.6 mph - N/A   Clear
7:55 AM 28.4 °F 24.6 °F 10.4 °F 47% 30.16 in 10.0 mi WSW 3.5 mph - N/A   Clear
8:15 AM 28.4 °F - 12.2 °F 51% 30.16 in 10.0 mi Calm Calm - N/A   Clear
8:35 AM 32.0 °F 26.4 °F 12.2 °F 44% 30.15 in 10.0 mi NW 5.8 mph - N/A   Clear
8:55 AM 35.6 °F - 12.2 °F 38% 30.16 in 10.0 mi Calm Calm - N/A   Clear
9:15 AM 46.4 °F - 10.4 °F 23% 30.15 in 5.0 mi Calm Calm - N/A   Haze
9:35 AM 48.2 °F - 12.2 °F 24% 30.14 in 10.0 mi SSE 5.8 mph - N/A   Clear
9:55 AM 48.2 °F - 12.2 °F 24% 30.14 in 10.0 mi ESE 6.9 mph - N/A   Clear
10:15 AM 50.0 °F - 10.4 °F 20% 30.12 in 10.0 mi WSW 9.2 mph - N/A   Clear
10:35 AM 50.0 °F - 10.4 °F 20% 30.12 in 10.0 mi West 11.5 mph 17.3 mph N/A   Clear
10:55 AM 53.6 °F - 8.6 °F 16% 30.11 in 10.0 mi West 12.7 mph 21.9 mph N/A   Clear
11:15 AM 53.6 °F - 3.2 °F 13% 30.10 in 10.0 mi West 13.8 mph 25.3 mph N/A   Clear
11:35 AM 53.6 °F - 5.0 °F 14% 30.09 in 10.0 mi West 18.4 mph 26.5 mph N/A   Clear
11:55 AM 53.6 °F - 6.8 °F 15% 30.08 in 10.0 mi West 19.6 mph 28.8 mph N/A   Clear
12:15 PM 53.6 °F - 8.6 °F 16% 30.07 in 10.0 mi WSW 18.4 mph 26.5 mph N/A   Clear
12:35 PM 53.6 °F - 3.2 °F 13% 30.07 in 10.0 mi West 19.6 mph 27.6 mph N/A   Clear
12:55 PM 53.6 °F - 5.0 °F 14% 30.07 in 10.0 mi West 13.8 mph 27.6 mph N/A   Clear
1:15 PM 53.6 °F - 6.8 °F 15% 30.08 in 10.0 mi WNW 16.1 mph 27.6 mph N/A   Clear
1:35 PM 53.6 °F - 10.4 °F 18% 30.09 in 10.0 mi West 13.8 mph 26.5 mph N/A   Clear
1:55 PM 53.6 °F - 5.0 °F 14% 30.10 in 10.0 mi NW 19.6 mph 31.1 mph N/A   Clear
2:15 PM 53.6 °F - 8.6 °F 16% 30.10 in 10.0 mi WNW 13.8 mph 25.3 mph N/A   Clear
2:55 PM 51.8 °F - 10.4 °F 19% 30.10 in 10.0 mi WNW 13.8 mph 18.4 mph N/A   Clear
3:15 PM 50.0 °F - 8.6 °F 19% 30.11 in 10.0 mi West 13.8 mph 24.2 mph N/A   Clear
3:35 PM 50.0 °F - 8.6 °F 19% 30.11 in 10.0 mi WNW 10.4 mph 19.6 mph N/A   Clear
3:55 PM 50.0 °F - 10.4 °F 20% 30.10 in 10.0 mi West 11.5 mph 18.4 mph N/A   Clear
4:15 PM 50.0 °F - 10.4 °F 20% 30.10 in 10.0 mi West 10.4 mph 17.3 mph N/A   Clear
4:35 PM 48.2 °F - 10.4 °F 22% 30.10 in 10.0 mi West 9.2 mph 16.1 mph N/A   Clear
4:55 PM 48.2 °F - 10.4 °F 22% 30.10 in 10.0 mi NNW 8.1 mph - N/A   Clear
5:15 PM 48.2 °F - 14.0 °F 25% 30.10 in 10.0 mi WNW 11.5 mph 16.1 mph N/A   Clear
5:35 PM 46.4 °F 41.5 °F 6.8 °F 20% 30.11 in 10.0 mi NW 10.4 mph - N/A   Clear
5:55 PM 44.6 °F 38.8 °F 8.6 °F 23% 30.12 in 10.0 mi NW 11.5 mph 19.6 mph N/A   Clear
6:15 PM 44.6 °F 40.2 °F 6.8 °F 21% 30.13 in 10.0 mi NW 8.1 mph - N/A   Clear
6:35 PM 42.8 °F 34.8 °F 5.0 °F 21% 30.14 in 10.0 mi NNW 17.3 mph 21.9 mph N/A   Clear
6:55 PM 41.0 °F 34.3 °F 5.0 °F 23% 30.14 in 10.0 mi NW 11.5 mph 18.4 mph N/A   Clear
7:15 PM 39.2 °F 37.0 °F 6.8 °F 26% 30.15 in 10.0 mi SE 3.5 mph - N/A   Clear
7:35 PM 39.2 °F - 5.0 °F 24% 30.15 in 10.0 mi Calm Calm - N/A   Clear
7:55 PM 39.2 °F 34.2 °F 5.0 °F 24% 30.16 in 10.0 mi WNW 6.9 mph - N/A   Clear
8:15 PM 39.2 °F 37.0 °F 5.0 °F 24% 30.17 in 10.0 mi WNW 3.5 mph - N/A   Clear
8:35 PM 35.6 °F - 5.0 °F 28% 30.17 in 10.0 mi Calm Calm - N/A   Clear
8:55 PM 32.0 °F 26.4 °F 6.8 °F 35% 30.18 in 10.0 mi SSE 5.8 mph - N/A   Clear
9:15 PM 32.0 °F - 6.8 °F 35% 30.18 in 10.0 mi Calm Calm - N/A   Clear
9:35 PM 32.0 °F 24.8 °F 6.8 °F 35% 30.19 in 10.0 mi North 8.1 mph - N/A   Clear
9:55 PM 30.2 °F 24.3 °F 8.6 °F 40% 30.18 in 10.0 mi North 5.8 mph - N/A   Clear
10:15 PM 28.4 °F - 8.6 °F 43% 30.18 in 10.0 mi Calm Calm - N/A   Clear
10:35 PM 28.4 °F 24.6 °F 10.4 °F 47% 30.18 in 10.0 mi NW 3.5 mph - N/A   Clear
10:55 PM 26.6 °F 22.6 °F 8.6 °F 47% 30.18 in 10.0 mi NNW 3.5 mph - N/A   Clear
11:15 PM 26.6 °F - 8.6 °F 47% 30.17 in 10.0 mi Calm Calm - N/A   Clear
11:35 PM 26.6 °F 21.2 °F 8.6 °F 47% 30.17 in 10.0 mi SE 4.6 mph - N/A   Clear
11:55 PM 28.4 °F - 8.6 °F 43% 30.18 in 10.0 mi Calm Calm - N/A   Clear